KOMPSAT 5

导读 | 星芒AI

KOMPSAT 5(韩国多用途卫星5号)是韩国自主研发的雷达遥感卫星,由韩国航空宇宙研究院(KARI)负责开发与运营。该卫星于2013年发射,搭载合成孔径雷达(SAR)和高分辨率光学传感器,可在全天候、全天时条件下获取地球表面图像。KOMPSAT 5主要用于国土监测、灾害预警、环境评估及军事侦察等领域,提升了韩国在地球观测和空间技术方面的自主能力。

基本信息
目录编号:
39227
目录名称:
KOMPSAT 5
国际标识:
2013-042A
轨道中心:
EARTH
卫星名称:
KOMPSAT 5
卫星全名:
--
卫星状态:
在轨 (已飞行4499 天)
发射日期:
2013-08-22 UTC
国别 :
韩国 (KR)
星等 :
--
轨道信息
数据来源 国际轨道数据 AOE轨道数据
星历时间 2025-12-15T16:05:20+0800
17小时前
查看轨道信息
2025-12-15T21:00:00+0800
12小时前
查看轨道信息
半长轴 6931.118km 6931.108km
偏心率 0.0003518 0.0003543
轨道倾角 97.615° 97.617°
近地点辐角 47.939° 47.069°
升交点赤经 173.603° 173.803°
平近点角 312.214° 340.692°
近地点 550.544km 550.517km
远地点 555.422km 555.429km
周期 95.712分钟 95.711分钟
每日圈数 15.045196 15.04523
详细信息
使用方式:
暂无
2D轨道图
3D轨道图
轨道高度分析图
轨道倾角分析图
轨道综合分析图
查看轨道综合分析图